Theta_e
309 309 311 312 313 314 314 314 313 313 315 315 313 311 312 315 318 318 316 321 321 323 322 326 323 325 333 331 334 332 339 343 342 340 339 340 344 341 338 341 339 336 328 325 321
309 310 311 312 313 314 314 314 314 313 315 314 314 311 313 316 319 319 321 322 324 321 322 323 324 325 325 331 336 335 334 338 340 339 338 340 340 341 341 341 336 324 323 322 321
309 311 312 312 313 314 315 314 314 314 315 314 312 312 314 319 328 326 321 324 324 322 321 322 324 326 330 332 336 333 337 335 339 337 336 340 341 342 340 343 331 325 323 322 322
310 310 312 312 314 314 315 315 315 314 316 316 313 312 314 324 330 330 327 325 325 320 321 322 331 333 336 335 334 336 333 336 337 338 336 342 341 342 341 341 329 324 323 322 322
310 310 311 312 313 314 315 315 315 315 317 317 315 312 317 324 327 330 325 325 322 320 320 320 330 332 336 337 336 336 337 334 337 335 336 339 341 342 341 335 326 325 324 323 321
309 310 311 312 314 315 316 316 316 317 319 317 316 313 325 327 327 327 323 323 322 321 322 320 328 331 334 335 334 336 335 335 335 336 339 342 343 342 340 328 326 326 325 323 322
309 310 311 312 313 315 316 316 317 319 318 316 316 316 322 325 326 325 321 323 324 323 326 332 334 333 331 335 335 337 337 335 338 340 343 342 347 346 338 328 327 327 326 325 324
308 309 310 311 313 315 316 317 319 320 318 317 316 318 318 325 325 324 323 324 325 324 323 324 335 332 333 331 333 340 337 338 339 340 341 341 346 345 340 329 329 328 327 326 325
308 309 310 311 313 315 316 318 319 320 319 317 322 321 320 324 324 325 324 325 324 325 323 330 334 331 331 329 328 333 337 342 340 337 342 340 342 342 342 338 331 329 327 327 327
307 308 310 311 313 314 316 319 319 322 321 321 322 319 321 324 324 325 325 325 324 324 323 330 328 330 327 327 330 334 339 338 341 338 342 344 340 345 344 343 341 333 330 328 328
307 308 310 311 313 314 317 320 314 314 317 318 319 321 321 323 324 325 326 325 323 322 323 322 322 323 323 329 329 333 338 338 337 338 340 341 341 341 345 344 344 341 331 329 329
307 308 310 311 313 314 317 317 316 317 314 316 317 317 319 320 322 324 325 325 324 324 324 321 323 324 324 327 331 337 339 336 336 337 338 336 338 342 344 345 344 343 339 332 329
307 308 310 311 313 316 316 318 316 317 316 318 318 319 320 321 322 324 323 324 324 324 324 324 324 324 330 335 335 334 333 335 334 339 340 336 335 346 344 343 342 339 339 337 331
307 308 310 311 314 313 317 315 317 318 322 323 323 322 320 321 323 324 324 324 324 325 324 324 323 325 325 325 332 331 329 335 338 335 338 333 335 337 346 346 345 342 339 339 335
307 308 310 310 311 312 315 315 319 320 328 328 322 321 319 322 323 325 324 324 324 325 325 324 324 325 325 327 331 332 332 335 337 337 336 338 335 338 343 342 338 340 341 337 338
307 309 310 311 311 313 314 314 319 325 328 323 319 318 319 321 322 323 325 325 324 324 323 322 322 325 325 331 332 333 336 328 334 335 340 338 338 338 340 336 337 336 335 336 336
308 309 310 311 311 313 313 318 322 328 327 323 318 318 317 319 321 322 322 324 325 326 324 322 324 323 329 331 328 329 328 332 335 336 339 338 342 335 335 336 336 335 331 331 334
309 310 311 311 312 312 315 319 329 329 330 328 319 319 319 318 319 321 322 322 322 322 322 323 323 327 330 332 332 333 331 333 340 337 335 338 342 335 334 333 332 332 331 331 334
310 311 312 313 315 317 314 323 327 329 328 326 324 320 319 319 320 320 320 321 322 321 323 324 324 327 332 332 330 334 334 330 332 332 331 331 334 330 336 335 333 334 334 333 332
309 310 312 313 320 319 314 319 324 327 324 328 327 328 329 323 319 318 319 322 324 322 321 323 323 327 332 332 333 331 331 332 329 335 338 334 335 334 334 336 336 335 334 333 332
311 310 315 315 319 312 312 316 322 323 323 326 326 326 330 331 321 319 321 323 325 324 322 323 324 325 332 331 332 333 334 335 330 331 336 340 333 327 334 332 334 334 332 332 332
313 312 318 318 314 311 315 318 321 326 323 326 326 328 331 329 329 328 328 330 330 325 326 325 323 328 331 328 329 331 332 330 331 334 335 333 334 334 333 332 333 334 334 334 335
307 314 321 320 317 314 314 320 324 325 324 324 326 327 329 330 329 330 331 330 333 331 330 330 329 331 332 329 328 333 333 333 329 329 336 333 332 335 335 332 332 333 331 332 334
308 317 316 312 312 315 319 318 324 324 321 323 324 328 328 330 332 336 336 335 334 331 334 330 328 326 328 329 328 332 332 333 330 332 332 333 331 331 338 335 333 332 328 327 328
308 313 319 321 319 319 318 319 320 325 322 322 325 328 329 333 334 335 333 335 332 328 331 324 326 331 330 331 332 334 332 332 334 332 334 333 333 336 337 335 333 332 329 331 330
309 316 313 319 320 322 316 318 322 324 324 324 324 338 337 339 337 338 332 331 337 332 332 327 326 334 335 336 336 335 332 333 334 334 335 338 339 336 336 334 335 333 332 331 330
312 317 319 323 321 322 319 317 322 323 323 325 327 338 337 335 335 333 330 327 330 333 330 334 333 334 333 335 331 328 334 337 338 338 336 339 336 338 338 336 334 332 330 331 329
Wind_Speed
24 24 23 25 27 28 29 31 31 28 23 17 12 8 7 7 3 2 4 5 5 4 7 8 6 5 5 3 4 3 4 2 6 6 4 3 3 1 2 3 3 4 4 16 22
23 23 24 24 26 28 29 30 30 28 25 18 12 8 7 6 0 6 4 4 3 3 7 9 5 10 2 3 2 4 4 8 5 5 4 6 4 7 4 2 5 10 15 21 21
23 23 24 25 26 28 29 30 30 27 25 17 12 8 7 3 1 4 5 5 3 6 7 5 5 7 4 3 3 3 4 5 5 5 8 6 3 3 9 3 11 17 11 12 16
24 24 24 26 27 29 30 31 30 25 25 13 10 8 5 1 4 3 2 9 7 7 6 2 0 5 4 2 0 3 1 6 8 8 7 9 4 2 2 4 9 11 17 10 10
24 25 25 27 29 29 31 33 33 32 20 8 8 7 1 2 5 3 5 8 8 8 4 4 2 6 8 4 2 3 1 4 5 10 7 7 6 6 5 8 13 15 12 10 11
23 25 25 28 29 30 32 35 33 31 10 3 6 4 1 2 4 3 8 9 9 6 5 10 5 4 7 4 3 0 2 5 3 6 7 10 3 6 4 13 14 12 11 10 14
23 25 25 28 30 31 33 35 38 18 4 0 4 1 1 6 2 6 10 7 7 4 5 7 6 1 5 5 3 3 4 4 3 5 5 7 2 6 9 13 14 11 10 9 11
23 24 25 29 31 32 33 35 32 7 2 0 2 0 4 2 5 8 11 10 11 11 10 5 9 6 3 4 5 4 4 4 5 7 6 5 8 8 11 14 14 12 10 9 8
23 24 26 28 30 32 33 33 20 2 2 1 3 2 4 3 4 11 14 5 4 9 9 7 6 4 3 4 5 6 2 3 2 7 5 6 6 9 14 14 14 12 10 9 6
23 24 27 28 29 31 34 28 9 3 6 4 2 3 2 2 6 7 11 11 5 3 4 4 5 4 3 4 4 5 2 4 5 6 7 9 13 6 18 17 16 12 8 10 12
23 24 27 28 29 30 26 12 9 4 6 4 3 3 4 7 4 6 6 5 1 5 2 2 3 4 9 10 7 4 2 5 2 7 7 10 11 7 17 16 13 12 12 12 15
23 24 27 28 29 26 17 4 6 10 8 8 9 5 15 7 3 2 4 3 3 2 2 7 4 7 13 6 5 4 2 5 5 3 2 1 3 7 15 21 14 9 10 14 9
22 24 27 29 27 7 17 4 27 11 2 7 5 4 5 10 5 5 8 2 2 1 2 4 9 8 7 4 3 3 6 5 4 2 3 1 4 6 2 3 7 6 8 12 14
21 24 26 31 4 25 9 25 29 1 4 5 3 6 5 5 2 6 11 5 1 2 3 4 2 5 11 7 6 4 8 4 4 3 1 3 4 6 3 6 8 9 14 13 17
21 23 24 24 17 10 12 29 26 3 2 1 4 1 1 7 3 4 6 4 4 5 2 8 4 5 6 5 4 2 8 4 3 3 2 4 3 7 1 4 7 12 14 11 15
22 22 25 16 19 16 20 31 4 4 1 2 5 5 4 1 2 2 2 3 2 4 2 3 5 2 5 4 0 8 6 6 4 3 4 3 3 5 3 4 5 5 6 9 14
23 23 26 22 6 19 26 8 4 3 4 2 4 3 5 4 2 3 1 0 3 3 5 6 6 6 2 4 7 7 5 3 5 5 5 2 1 8 6 8 8 7 11 14 9
24 25 22 24 21 23 9 5 1 2 5 4 3 3 5 5 4 3 5 2 2 4 3 2 8 2 2 3 5 2 4 5 4 2 5 3 3 5 4 7 5 6 7 7 3
26 20 17 14 4 4 5 3 4 4 4 6 4 4 4 3 4 3 6 6 7 8 9 4 6 4 3 4 2 3 2 5 5 2 3 3 6 9 2 5 8 6 7 8 8
22 13 12 7 8 4 5 4 4 4 6 4 3 1 2 3 5 6 6 4 5 10 5 6 4 4 4 2 6 2 3 3 3 0 3 5 4 5 4 2 1 4 7 10 9
8 4 2 7 7 5 2 5 5 7 5 1 2 1 1 2 4 3 2 5 5 3 6 4 4 7 1 4 7 2 2 6 4 4 4 2 6 5 5 2 6 5 8 8 9
4 3 4 14 3 1 2 4 5 6 4 4 1 1 2 2 2 3 4 5 5 6 8 3 5 3 6 6 4 2 4 5 5 4 1 3 6 3 4 4 6 3 6 6 7
1 3 2 3 2 2 5 5 4 4 3 4 3 4 4 4 4 4 0 4 5 2 5 5 2 3 8 7 5 1 3 4 5 3 5 5 6 3 3 4 3 3 8 6 6
2 2 4 4 1 5 2 5 5 5 3 1 2 4 6 7 6 4 6 5 5 4 8 8 3 5 6 5 2 4 4 4 6 3 4 5 7 4 2 4 3 3 5 8 7
1 3 2 3 3 2 3 3 4 4 3 3 4 2 2 3 5 6 5 5 4 4 4 4 2 3 5 4 2 4 4 3 6 3 4 5 3 5 4 4 5 3 5 7 7
2 1 3 3 3 2 6 4 5 4 0 4 4 4 5 4 2 2 2 3 1 6 3 4 2 0 3 3 5 3 7 6 3 1 3 2 2 7 3 3 5 6 7 8 9
2 2 3 4 4 1 3 5 2 1 3 3 2 3 5 3 3 4 4 1 1 1 1 2 5 3 4 4 5 5 2 2 3 3 2 2 4 3 1 1 3 5 4 7 9
Wind_Direction
353 357 359 1 0 3 5 6 6 4 2 357 352 1 358 349 329 251 252 137 170 173 167 153 181 191 155 89 84 116 70 169 192 162 221 126 123 4 305 112 27 13 100 129 132
348 349 352 357 357 355 359 2 1 359 357 355 350 353 353 347 203 250 212 175 133 145 167 183 175 133 134 116 53 83 106 209 184 168 172 156 153 175 130 108 56 85 98 128 144
346 345 347 350 352 348 352 356 357 355 351 349 350 343 342 341 120 251 209 185 188 226 226 216 166 161 90 126 188 156 180 183 202 161 135 145 186 214 137 212 173 153 146 141 140
341 342 343 344 346 345 346 349 351 348 344 338 343 334 335 349 134 273 240 180 224 232 255 329 65 66 82 194 49 119 223 184 158 162 144 162 149 141 212 208 144 151 146 140 154
336 338 340 340 342 341 342 343 345 340 336 327 337 331 322 354 248 258 180 180 214 228 194 150 78 123 140 154 63 56 176 176 182 150 153 134 195 166 220 129 127 138 152 162 170
334 335 336 337 337 337 339 340 342 339 339 319 334 328 46 170 294 257 179 194 215 234 245 167 191 186 107 66 81 274 63 91 121 157 146 168 201 134 179 141 150 163 174 180 174
334 333 335 335 334 335 337 339 340 342 0 38 327 329 121 220 300 167 170 225 251 259 344 18 106 174 138 121 140 54 62 27 156 170 169 117 302 229 151 156 164 182 190 192 190
333 333 333 333 333 334 336 338 340 342 58 65 317 132 229 229 252 213 191 244 248 255 251 299 69 91 54 130 58 101 65 157 213 189 190 133 251 208 169 164 183 191 204 196 190
333 332 332 331 331 334 335 338 342 71 62 51 103 54 266 312 211 221 213 199 262 280 274 131 77 66 28 75 5 36 219 237 219 206 149 207 260 188 179 187 197 199 200 194 191
331 332 330 329 331 335 335 345 349 95 40 81 75 46 323 251 282 229 229 224 260 304 79 85 60 69 23 75 242 241 232 242 217 198 175 204 253 180 190 197 198 203 209 200 198
331 333 330 328 332 335 343 356 8 348 359 216 240 258 276 307 272 237 203 172 90 50 62 65 87 281 236 200 221 169 160 263 236 214 161 220 242 220 200 212 206 200 205 209 215
332 333 331 327 333 333 354 53 85 294 299 248 241 243 259 254 319 278 181 163 91 254 18 15 299 272 293 171 158 161 197 254 310 40 112 251 310 311 197 212 207 217 216 222 212
330 331 332 328 331 353 337 26 339 354 265 297 228 201 211 157 195 245 143 165 148 122 84 156 258 329 26 25 126 210 185 227 179 88 56 340 312 330 332 213 201 215 221 214 206
329 332 335 333 350 335 315 335 338 360 43 275 238 270 156 156 229 216 175 146 56 198 205 224 360 354 310 304 141 239 198 161 148 109 247 32 287 289 321 300 247 226 228 217 214
326 329 329 334 317 316 316 332 331 123 19 163 200 271 89 142 194 222 179 87 205 210 81 255 350 311 316 266 159 272 69 56 91 120 79 357 55 274 55 274 246 253 259 234 221
324 325 323 325 311 298 322 327 327 40 322 358 159 166 110 218 232 1 129 48 172 171 193 265 257 234 218 339 265 153 76 54 47 59 26 282 106 286 265 238 301 263 293 262 220
321 319 312 302 274 309 318 345 37 107 337 268 204 140 166 154 252 161 221 257 175 78 291 349 294 284 187 10 19 51 66 5 7 1 226 28 44 242 259 242 234 328 318 315 228
321 317 308 288 290 294 321 44 68 275 267 293 138 83 155 159 236 188 147 234 235 109 87 103 330 341 358 178 156 71 128 138 248 252 272 6 248 269 241 335 44 42 286 317 286
328 321 301 298 284 157 71 65 221 231 291 326 57 93 331 267 186 139 192 205 222 168 168 167 260 309 20 57 25 170 73 164 108 16 38 261 289 315 8 28 31 321 352 336 310
330 318 289 267 151 92 72 237 253 234 321 3 81 122 144 276 168 156 189 218 228 185 150 210 298 233 203 36 55 129 122 41 21 351 305 294 289 241 303 189 15 3 325 309 324
329 353 315 167 156 52 157 238 280 269 270 41 15 360 191 266 188 164 176 280 208 139 101 133 122 282 133 182 205 344 36 56 108 125 171 275 277 212 272 219 199 255 291 303 299
355 339 41 145 59 44 208 206 280 289 343 23 98 335 22 320 94 127 190 230 21 167 138 169 142 224 236 301 221 160 157 135 123 240 222 153 276 18 99 121 175 233 291 317 289
356 260 53 210 136 290 287 286 275 301 337 16 342 39 10 347 64 45 353 351 22 74 143 180 37 38 350 351 356 355 207 129 104 88 194 149 263 135 100 112 301 291 284 305 300
42 336 319 48 116 149 332 279 303 278 267 144 294 52 33 15 4 24 25 348 4 66 77 92 99 148 192 212 214 304 283 140 132 123 187 229 289 306 174 246 198 253 274 282 288
67 254 212 284 288 216 165 279 315 309 357 338 47 38 198 65 2 3 4 3 22 15 62 96 117 195 227 250 239 245 10 171 191 168 188 257 230 283 184 255 291 264 288 299 291
205 73 349 284 297 218 182 241 214 272 61 351 69 66 64 95 104 314 327 33 56 349 52 5 193 99 317 305 317 317 30 333 40 148 273 188 213 223 117 97 310 294 311 317 320
281 273 113 276 304 144 221 247 259 183 350 85 119 98 55 338 239 221 217 253 213 178 105 101 138 103 266 345 342 10 323 28 350 6 282 192 256 111 227 258 289 293 280 294 298